Location: Unspecified
(0.0000°N, 0.0000°E)
Time: 00:47:36
(UTC+00:00)

N. Korean satellite - Pass Details

Date: 21 January 2021
Orbit: 453 x 502 km, 97.2° (Epoch: 16 January)

Event Time Altitude Azimuth Distance (km) Brightness Sun altitude
Rises 05:08:42 0° 7° (N) 2,454 10.0 -14.7°
Reaches altitude 10° 05:10:44 10° 4° (N) 1,581 9.0 -14.2°
Maximum altitude 05:14:06 69° 281° (W) 487 6.3 -13.4°
Drops below altitude 10° 05:17:29 10° 197° (SSW) 1,586 9.2 -12.6°
Sets 05:19:31 0° 195° (SSW) 2,463 10.2 -12.2°
